Terminal Aerodrome Forecast
Issued by NWS Tallahassee, FL

Current Version | Previous Version | Text Only | Print | Product List | Glossary On
Versions: 1 2 3 4 5 6 7 8 9 10 11 12 13 14 15 16 17 18 19 20 21 22 23 24 25
000
FTUS42 KTAE 210500
TAFTLH
TAF
KTLH 210523Z 2106/2206 00000KT P6SM SKC
     FM211500 03006KT P6SM FEW250
     FM220000 00000KT P6SM SCT250=

USA.gov is the U.S. government's official web portal to all federal, state and local government web resources and services.